632  
ASUS45 KGGW 220215  
RWRGGW  
HOURLY REGIONAL WEATHER ROUNDUP FOR NORTHEAST MONTANA  
NATIONAL WEATHER SERVICE GLASGOW MONTANA  
800 PM MDT FRI JUL 21 2017  
 
NOTE: "FAIR" INDICATES FEW OR NO CLOUDS BELOW 12,000 FEET WITH NO  
SIGNIFICANT WEATHER AND/OR S TO VISISBILITY.  
 
NORTHEAST MONTANA  
 
 
CITY SKY/WX TMP DP RH WIND PRES REMARKS
 
GLASGOW CLEAR 83 27 13 NW12 29.87R  
PLENTYWOOD N/A 78 39 24 N13G21 N/A  
WOLF POINT CLEAR 86 31 13 NW12 29.85F  
JORDAN N/A 86 22 9 NW15 29.89S  
WINNETT N/A 86 22 9 NW15 N/A  
SIDNEY CLEAR 85 33 15 NW12 29.85R  
GLENDIVE CLEAR 80 39 23 NW7 29.89R  
MALTA N/A 83 35 18 W10G21 N/A  
SCOBEY N/A 79 41 25 W6 29.88S  
 
FORT PECK REPORTS  
 
 
CITY SKY/WX TMP DP RH WIND PRES REMARKS
 
FORT PECK N/A 84 32 15 NW15 N/A  
THE PINES N/A 86 26 11 NW7G15 N/A  
 
SOUTHEAST MONTANA  
 
 
CITY SKY/WX TMP DP RH WIND PRES REMARKS
 
BILLINGS CLEAR 87 28 12 N10 29.96R  
MILES CITY CLOUDY 87 25 10 N13 29.88R HAZE  
BAKER CLEAR 83 32 16 N9 29.92R  
LIVINGSTON CLEAR 82 29 14 NW10 30.03R  
 
CENTRAL MONTANA  
 
 
CITY SKY/WX TMP DP RH WIND PRES REMARKS
 
HAVRE CLEAR 81 35 19 NW14 29.93R  
LEWISTOWN CLEAR 80 25 13 NW7 30.02R  
GREAT FALLS SUNNY 82 20 10 NW12 30.00R  
CUT BANK MOSUNNY 75 32 20 NW13 30.03R  
HELENA SUNNY 83 30 14 W14 30.05R  
BUTTE SUNNY 77 20 12 NW16 30.15R  
BOZEMAN CLEAR 76 48 37 N8 30.04R  
 
WESTERN MONTANA  
 
 
CITY SKY/WX TMP DP RH WIND PRES REMARKS
 
MISSOULA SUNNY 80 30 16 NW14G21 30.06R  
KALISPELL NOT AVBL  
 
NORTH DAKOTA  
 
 
CITY SKY/WX TMP DP RH WIND PRES REMARKS
 
WILLISTON CLEAR 84 44 24 NW12 29.83R  
DICKINSON CLEAR 81 36 19 NW12 29.85R  
MINOT CLOUDY 83 67 58 E5 29.73S  
BISMARCK CLEAR 84 71 65 E7 29.76S  
 
SOUTHERN SASKATCHEWAN  
 
 
CITY SKY/WX TMP DP RH WIND PRES REMARKS
 
REGINA PTCLDY 72 55 56 NW21G30 29.84  
ESTEVAN PTCLDY 73 48 40 W23 29.81R  
SWIFT CURRENT CLEAR 70 46 43 NW7 29.90S  
 
 
 
CLICK HERE TO GO TO PREVIOUS BULLETINS.

The Nexlab MT Page Main Text Page